EW3349 Weather Reports


Display with metric or nautical units.
time (UTC)temp
F
wind
direction
speed
MPH
gust
MPH
rain 1hr
in
rain 24hr
in
rain mn
in
humidity
%
barometer
mb
20260906090751 59 6 0.0 0.0 0.00 0.00 0.00 95 1014.6
20260906085805 60 6 0.0 0.0 0.00 0.00 0.00 95 1014.4
20260906083706 60 6 0.0 0.0 0.00 0.00 0.00 95 1014.1
20260906075311 60 6 0.0 0.0 0.00 0.00 0.00 94 1014.1
20260906074301 61 6 0.0 0.0 0.00 0.00 0.00 94 1014.0
20260906073254 61 6 0.0 0.0 0.00 0.00 0.00 94 1013.9
20260906072310 61 6 0.0 0.0 0.00 0.00 0.00 94 1013.9
20260906071328 61 6 0.0 0.0 0.00 0.00 0.00 94 1013.9
20260906070350 62 6 0.0 0.0 0.00 0.00 0.00 94 1013.9
20260906065359 62 6 0.0 0.0 0.00 0.00 0.00 94 1014.0
20260906063302 62 6 0.0 0.0 0.00 0.00 0.00 94 1014.1
20260906062254 62 6 0.0 0.0 0.00 0.00 0.00 94 1014.0
20260906060122 62 6 0.0 0.0 0.00 0.00 0.00 93 1014.1
20260906055145 62 6 0.0 0.0 0.00 0.00 0.00 93 1014.0
20260906054125 62 6 0.0 0.0 0.00 0.00 0.00 93 1014.1
20260906053119 62 6 0.0 0.0 0.00 0.00 0.00 93 1014.2
20260906050957 62 6 0.0 0.0 0.00 0.00 0.00 92 1014.2
20260906045942 63 6 0.0 0.0 0.00 0.00 0.00 92 1014.1
20260906045003 63 6 0.0 0.0 0.00 0.00 0.00 91 1014.0
20260906043959 63 6 0.0 0.0 0.00 0.00 0.00 91 1014.0
20260906041800 64 6 0.0 0.0 0.00 0.00 0.00 90 1013.9
20260906035650 64 6 0.0 0.0 0.00 0.00 0.00 89 1013.9
20260906033502 65 6 0.0 0.0 0.00 0.00 0.00 88 1013.7
20260906032435 65 6 0.0 0.0 0.00 0.00 0.00 88 1013.7
20260906031411 65 6 0.0 0.0 0.00 0.00 0.00 88 1013.8
20260906030402 65 6 0.0 0.0 0.00 0.00 0.00 88 1013.7
20260906025418 65 6 0.0 0.0 0.00 0.00 0.00 88 1013.6
20260906024359 65 6 0.0 0.0 0.00 0.00 0.00 87 1013.6
20260906023345 65 6 0.0 0.0 0.00 0.00 0.00 88 1013.4
20260906022318 65 6 0.0 0.0 0.00 0.00 0.00 88 1013.5
20260906020150 65 6 0.0 0.0 0.00 0.00 0.00 87 1013.3
20260906015211 65 6 0.0 0.0 0.00 0.00 0.00 87 1013.4
20260906013034 65 6 0.0 0.0 0.00 0.00 0.00 87 1013.3
20260906012038 65 6 0.0 0.0 0.00 0.00 0.00 86 1013.3
20260906004721 66 6 0.0 0.0 0.00 0.00 0.00 86 1013.2
20260906003706 66 6 0.0 0.0 0.00 0.00 0.00 85 1013.0
20260906002713 66 6 0.0 0.0 0.00 0.00 0.00 84 1013.0
20260906001639 67 6 0.0 0.0 0.00 0.00 0.00 84 1013.0
20260906000634 67 6 0.0 0.0 0.00 0.00 0.00 83 1013.0
20260905235646 67 6 0.0 0.0 0.00 0.00 0.00 82 1013.1
20260905234655 68 6 0.0 0.0 0.00 0.00 0.00 81 1013.0
20260905232516 68 11 0.0 0.0 0.00 0.00 0.00 80 1013.0
20260905231446 69 11 0.0 0.0 0.00 0.00 0.00 78 1013.0
20260905230510 69 330 0.0 0.0 0.00 0.00 0.00 77 1013.1
20260905225523 70 9 0.0 0.0 0.00 0.00 0.00 76 1013.1
20260905224519 71 143 0.0 1.0 0.00 0.00 0.00 74 1013.1
20260905223448 71 63 0.0 0.0 0.00 0.00 0.00 72 1013.1
20260905222456 72 342 0.0 1.0 0.00 0.00 0.00 73 1012.9
20260905220410 74 339 0.0 0.0 0.00 0.00 0.00 70 1012.8
20260905214306 74 344 0.0 0.0 0.00 0.00 0.00 68 1012.6
20260905213257 75 329 0.0 1.0 0.00 0.00 0.00 69 1012.5
20260905212316 75 144 0.0 0.0 0.00 0.00 0.00 66 1012.4
20260905205101 77 88 0.0 2.0 0.00 0.00 0.00 64 1012.3
20260905204118 77 70 0.0 2.0 0.00 0.00 0.00 62 1012.1
20260905203122 78 335 0.0 3.0 0.00 0.00 0.00 63 1012.3
20260905200944 79 347 0.0 2.0 0.00 0.00 0.00 57 1012.2
20260905195958 78 309 0.0 3.0 0.00 0.00 0.00 59 1012.3
20260905194928 79 56 0.0 3.0 0.00 0.00 0.00 56 1012.3
20260905192730 79 94 0.0 0.0 0.00 0.00 0.00 63 1012.4
20260905191743 77 112 0.0 2.0 0.00 0.00 0.00 60 1012.3
20260905190728 77 351 0.0 2.0 0.00 0.00 0.00 64 1012.5
20260905185708 77 345 0.0 2.0 0.00 0.00 0.00 64 1012.4
20260905183532 76 38 0.0 3.0 0.00 0.00 0.00 62 1012.3
20260905182546 74 306 0.0 2.0 0.00 0.00 0.00 69 1012.4
20260905175340 74 13 0.0 3.0 0.00 0.00 0.00 65 1012.3
20260905174314 74 341 0.0 0.0 0.00 0.00 0.00 67 1012.4
20260905173251 75 1 0.0 3.0 0.00 0.00 0.00 64 1012.3
20260905171110 74 7 0.0 3.0 0.00 0.00 0.00 66 1012.4
20260905170119 74 281 0.0 0.0 0.00 0.00 0.00 70 1012.3
20260905165044 74 321 0.0 1.0 0.00 0.00 0.00 67 1012.4
20260905164056 73 358 0.0 2.0 0.00 0.00 0.00 70 1012.3
20260905163031 74 77 0.0 0.0 0.00 0.00 0.00 67 1012.4
20260905160908 73 316 0.0 3.0 0.00 0.00 0.00 69 1012.5
20260905155848 73 359 0.0 2.0 0.00 0.00 0.00 70 1012.6
20260905154816 73 138 0.0 2.0 0.00 0.00 0.00 68 1012.7
20260905153821 73 319 0.0 0.0 0.00 0.00 0.00 70 1012.7
20260905152832 73 30 0.0 1.0 0.00 0.00 0.00 70 1012.8
20260905151800 73 318 0.0 1.0 0.00 0.00 0.00 70 1012.7
20260905150758 73 338 0.0 1.0 0.00 0.00 0.00 69 1012.6
20260905145804 72 72 0.0 3.0 0.00 0.00 0.00 72 1012.8
20260905144823 72 5 0.0 3.0 0.00 0.00 0.00 70 1012.7
20260905143758 71 195 0.0 1.0 0.00 0.00 0.00 73 1012.6
20260905141717 69 347 0.0 4.0 0.00 0.00 0.00 75 1012.6
20260905140654 69 76 0.0 1.0 0.00 0.00 0.00 80 1012.7
20260905135710 69 108 0.0 1.0 0.00 0.00 0.00 82 1012.7
20260905134717 68 318 0.0 0.0 0.00 0.00 0.00 85 1012.6
20260905133647 67 123 0.0 0.0 0.00 0.00 0.00 88 1012.5
20260905132629 66 13 0.0 0.0 0.00 0.00 0.00 92 1012.6
20260905131621 65 124 0.0 0.0 0.00 0.00 0.00 94 1012.6
20260905124401 62 191 0.0 0.0 0.00 0.00 0.00 97 1013.0
20260905123348 61 191 0.0 0.0 0.00 0.00 0.00 97 1012.9
20260905122318 61 191 0.0 0.0 0.00 0.00 0.00 97 1012.8
20260905120138 60 250 0.0 0.0 0.00 0.00 0.00 96 1012.6
20260905115116 59 250 0.0 0.0 0.00 0.00 0.00 96 1012.6
20260905114138 59 250 0.0 0.0 0.00 0.00 0.00 96 1012.5
20260905113133 59 250 0.0 0.0 0.00 0.00 0.00 96 1012.2
20260905112131 59 250 0.0 0.0 0.00 0.00 0.00 96 1012.2
20260905111142 59 250 0.0 0.0 0.00 0.00 0.00 96 1012.2
20260905104954 58 250 0.0 0.0 0.00 0.00 0.00 95 1012.4
20260905103944 58 250 0.0 0.0 0.00 0.00 0.00 95 1012.1
20260905102953 58 250 0.0 0.0 0.00 0.00 0.00 95 1011.9
20260905102006 58 250 0.0 0.0 0.00 0.00 0.00 95 1011.6
20260905100940 58 250 0.0 0.0 0.00 0.00 0.00 95 1011.6
20260905095924 58 250 0.0 0.0 0.00 0.00 0.00 95 1011.7
20260905094935 58 250 0.0 0.0 0.00 0.00 0.00 94 1011.7
20260905093957 59 250 0.0 0.0 0.00 0.00 0.00 95 1011.7
20260905093014 59 250 0.0 0.0 0.00 0.00 0.00 94 1011.7
20260905092009 59 250 0.0 0.0 0.00 0.00 0.00 94 1011.5